Regional Weather Roundup
Issued by NWS Bismarck, ND

Home | Current Version | Previous Version | Text Only | Print | Product List | Glossary On
Versions: 1 2 3 4 5 6 7 8 9 10 11 12 13 14 15 16 17 18 19 20 21 22 23 24 25 26 27 28 29 30 31 32 33 34 35 36 37 38 39 40 41 42 43 44 45 46 47 48 49 50
161
ASUS43 KBIS 300810
RWRBIS

NWR BROADCAST TEXT
NATIONAL WEATHER SERVICE BISMARCK ND
300 AM CDT MON MAY 30 2016

NOTE: "FAIR" INDICATES FEW OR NO CLOUDS BELOW 12,000 FEET WITH NO
SIGNIFICANT WEATHER AND/OR OBSTRUCTIONS TO VISIBILITY.


CITY           SKY/WX    TMP DP  RH WIND       PRES   REMARKS
WILLISTON      CLEAR     44  40  85 CALM      29.91F
MINOT          CLEAR     56  46  69 S3        29.91S
MINOT AFB      CLEAR     51  45  80 SW2       29.90S
BISMARCK       CLEAR     55  51  86 E3        29.93F
DICKINSON      CLEAR     50  46  86 S8        29.91F
GARRISON         N/A     51  46  83 E3        29.92S
HETTINGER ARPT CLEAR     53  47  79 CALM      29.95F
JAMESTOWN      CLEAR     52  48  86 CALM      29.93F
BEACH          FAIR      48  45  87 S5        29.95S
CARRINGTON     FAIR      54  46  76 SE5       29.95F
HAZEN          FAIR      48  46  93 CALM      29.94S
LINTON           N/A     48  48 100 E6          N/A
MANDAN         FAIR      55  50  82 S6        29.94F
OAKES            N/A    N/A N/A N/A MISG        N/A
RUGBY          FAIR      55  46  71 S8        29.92S
STANLEY        FAIR      46  46 100 CALM      29.95F
WATFORD CITY   FAIR      45  41  87 CALM      29.92F
$$

CITY           SKY/WX    TMP DP  RH WIND       PRES   REMARKS
GRAND FORKS    CLEAR     50  45  83 CALM      29.91F
GRAND FORKS AF CLEAR     53  47  82 SW3       29.91F
DEVILS LAKE    MOCLDY    53  46  77 S3        29.93F
FARGO          CLOUDY    62  48  60 SE6       29.93F
CAVALIER       FAIR      54  48  82 NW3       29.91S
GRAFTON        FAIR      55  52  88 SW6       29.92F
GWINNER        FAIR      55  52  88 SW7       29.95F
LANGDON        FAIR      52  50  93 S8        29.92F
ROLLA          FAIR      52  41  66 SW8       29.93S
WALHALLA       FAIR      50  46  87 CALM      29.91S
$$

CITY           SKY/WX    TMP DP  RH WIND       PRES   REMARKS
ABERDEEN       CLEAR     52  48  86 SE6       29.96S
MOBRIDGE       CLEAR     57  53  86 SE7       29.91F
BUFFALO          N/A     53  47  79 SE9       29.87F
RAPID CITY     CLEAR     50  49  96 W3        29.94F
GLASGOW        MOCLDY    55  44  66 E9        29.87F
SIDNEY         CLEAR     48  42  80 N3        29.90F
WOLF POINT     CLOUDY    48  40  73 NE5       29.90S
GLENDIVE       PTCLDY    52  39  62 SE3       29.94R
MILES CITY     CLOUDY    61  47  59 NE3       29.88F
BAKER          CLEAR     48  42  80 SE7       29.93F
$$

CITY           SKY/WX    TMP DP  RH WIND       PRES   REMARKS
BILLINGS       CLOUDY    55  47  74 N15       29.91S
GREAT FALLS    PTCLDY    49  43  80 SW9       29.97S
REGINA         PTCLDY    50  43  76 SE6       29.87F
$$





USA.gov is the U.S. government's official web portal to all federal, state and local government web resources and services.